Year,Month,Day,Hour,Minute,Value (Times are PST for temperature in C)
2015,08,24,00,00,15.20
2015,08,24,00,01,15.20
2015,08,24,00,02,15.20
2015,08,24,00,03,15.20
2015,08,24,00,04,15.20
2015,08,24,00,05,15.30
2015,08,24,00,06,15.30
2015,08,24,00,07,15.40
2015,08,24,00,08,15.40
2015,08,24,00,09,15.40
2015,08,24,00,10,15.50
2015,08,24,00,11,15.50
2015,08,24,00,12,15.50
2015,08,24,00,13,15.50
2015,08,24,00,14,15.40
2015,08,24,00,15,15.40
2015,08,24,00,16,15.40
2015,08,24,00,17,15.40
2015,08,24,00,18,15.30
2015,08,24,00,19,15.30
2015,08,24,00,20,15.30
2015,08,24,00,21,15.20
2015,08,24,00,22,15.20
2015,08,24,00,23,15.20
2015,08,24,00,24,15.10
2015,08,24,00,25,15.10
2015,08,24,00,26,15.10
2015,08,24,00,27,15.00
2015,08,24,00,28,15.00
2015,08,24,00,29,14.90
2015,08,24,00,30,14.90
2015,08,24,00,31,14.90
2015,08,24,00,32,14.90
2015,08,24,00,33,14.90
2015,08,24,00,34,14.90
2015,08,24,00,35,14.80
2015,08,24,00,36,14.80
2015,08,24,00,37,14.80
2015,08,24,00,38,14.80
2015,08,24,00,39,14.70
2015,08,24,00,40,14.60
2015,08,24,00,41,14.60
2015,08,24,00,42,14.50
2015,08,24,00,43,14.50
2015,08,24,00,44,14.40
2015,08,24,00,45,14.40
2015,08,24,00,46,14.30
2015,08,24,00,47,14.30
2015,08,24,00,48,14.20
2015,08,24,00,49,14.20
2015,08,24,00,50,14.10
2015,08,24,00,51,14.10
2015,08,24,00,52,14.10
2015,08,24,00,53,14.00
2015,08,24,00,54,13.90
2015,08,24,00,55,13.90
2015,08,24,00,56,13.90
2015,08,24,00,57,13.80
2015,08,24,00,58,13.80
2015,08,24,00,59,13.70
2015,08,24,01,00,13.70
2015,08,24,01,01,13.70
2015,08,24,01,02,13.60
2015,08,24,01,03,13.60
2015,08,24,01,04,13.50
2015,08,24,01,05,13.50
2015,08,24,01,06,13.40
2015,08,24,01,07,13.40
2015,08,24,01,08,13.40
2015,08,24,01,09,13.30
2015,08,24,01,10,13.30
2015,08,24,01,11,13.20
2015,08,24,01,12,13.20
2015,08,24,01,13,13.20
2015,08,24,01,14,13.10
2015,08,24,01,15,13.10
2015,08,24,01,16,13.00
2015,08,24,01,17,13.00
2015,08,24,01,18,12.90
2015,08,24,01,19,12.90
2015,08,24,01,20,12.90
2015,08,24,01,21,12.80
2015,08,24,01,22,12.80
2015,08,24,01,23,12.80
2015,08,24,01,24,12.70
2015,08,24,01,25,12.70
2015,08,24,01,26,12.70
2015,08,24,01,27,12.70
2015,08,24,01,28,12.60
2015,08,24,01,29,12.60
2015,08,24,01,30,12.60
2015,08,24,01,31,12.60
2015,08,24,01,32,12.60
2015,08,24,01,33,12.50
2015,08,24,01,34,12.50
2015,08,24,01,35,12.40
2015,08,24,01,36,12.40
2015,08,24,01,37,12.40
2015,08,24,01,38,12.40
2015,08,24,01,39,12.30
2015,08,24,01,40,12.30
2015,08,24,01,41,12.30
2015,08,24,01,42,12.20
2015,08,24,01,43,12.20
2015,08,24,01,44,12.20
2015,08,24,01,45,12.20
2015,08,24,01,46,12.10
2015,08,24,01,47,12.10
2015,08,24,01,48,12.10
2015,08,24,01,49,12.00
2015,08,24,01,50,12.00
2015,08,24,01,51,11.90
2015,08,24,01,52,11.90
2015,08,24,01,53,11.90
2015,08,24,01,54,11.90
2015,08,24,01,55,11.80
2015,08,24,01,56,11.80
2015,08,24,01,57,11.80
2015,08,24,01,58,11.80
2015,08,24,01,59,11.80
2015,08,24,02,00,11.70
2015,08,24,02,01,11.70
2015,08,24,02,02,11.70
2015,08,24,02,03,11.70
2015,08,24,02,04,11.70
2015,08,24,02,05,11.70
2015,08,24,02,06,11.70
2015,08,24,02,07,11.60
2015,08,24,02,08,11.60
2015,08,24,02,09,11.60
2015,08,24,02,10,11.60
2015,08,24,02,11,11.60
2015,08,24,02,12,11.50
2015,08,24,02,13,11.50
2015,08,24,02,14,11.50
2015,08,24,02,15,11.40
2015,08,24,02,16,11.40
2015,08,24,02,17,11.40
2015,08,24,02,18,11.40
2015,08,24,02,19,11.30
2015,08,24,02,20,11.30
2015,08,24,02,21,11.30
2015,08,24,02,22,11.30
2015,08,24,02,23,11.30
2015,08,24,02,24,11.20
2015,08,24,02,25,11.20
2015,08,24,02,26,11.20
2015,08,24,02,27,11.20
2015,08,24,02,28,11.20
2015,08,24,02,29,11.10
2015,08,24,02,30,11.10
2015,08,24,02,31,11.10
2015,08,24,02,32,11.10
2015,08,24,02,33,11.10
2015,08,24,02,34,11.10
2015,08,24,02,35,11.00
2015,08,24,02,36,11.00
2015,08,24,02,37,11.00
2015,08,24,02,38,11.00
2015,08,24,02,39,10.90
2015,08,24,02,40,10.90
2015,08,24,02,41,10.90
2015,08,24,02,42,10.90
2015,08,24,02,43,10.90
2015,08,24,02,44,10.80
2015,08,24,02,45,10.80
2015,08,24,02,46,10.80
2015,08,24,02,47,10.80
2015,08,24,02,48,10.80
2015,08,24,02,49,10.80
2015,08,24,02,50,10.80
2015,08,24,02,51,10.80
2015,08,24,02,52,10.70
2015,08,24,02,53,10.70
2015,08,24,02,54,10.70
2015,08,24,02,55,10.70
2015,08,24,02,56,10.70
2015,08,24,02,57,10.70
2015,08,24,02,58,10.70
2015,08,24,02,59,10.70
2015,08,24,03,00,10.70
2015,08,24,03,01,10.70
2015,08,24,03,02,10.70
2015,08,24,03,03,10.70
2015,08,24,03,04,10.60
2015,08,24,03,05,10.60
2015,08,24,03,06,10.60
2015,08,24,03,07,10.60
2015,08,24,03,08,10.60
2015,08,24,03,09,10.60
2015,08,24,03,10,10.60
2015,08,24,03,11,10.60
2015,08,24,03,12,10.50
2015,08,24,03,13,10.50
2015,08,24,03,14,10.50
2015,08,24,03,15,10.50
2015,08,24,03,16,10.50
2015,08,24,03,17,10.50
2015,08,24,03,18,10.40
2015,08,24,03,19,10.40
2015,08,24,03,20,10.40
2015,08,24,03,21,10.40
2015,08,24,03,22,10.40
2015,08,24,03,23,10.40
2015,08,24,03,24,10.40
2015,08,24,03,25,10.30
2015,08,24,03,26,10.30
2015,08,24,03,27,10.30
2015,08,24,03,28,10.30
2015,08,24,03,29,10.30
2015,08,24,03,30,10.30
2015,08,24,03,31,10.30
2015,08,24,03,32,10.30
2015,08,24,03,33,10.20
2015,08,24,03,34,10.20
2015,08,24,03,35,10.20
2015,08,24,03,36,10.20
2015,08,24,03,37,10.20
2015,08,24,03,38,10.20
2015,08,24,03,39,10.20
2015,08,24,03,40,10.20
2015,08,24,03,41,10.20
2015,08,24,03,42,10.20
2015,08,24,03,43,10.20
2015,08,24,03,44,10.10
2015,08,24,03,45,10.10
2015,08,24,03,46,10.10
2015,08,24,03,47,10.10
2015,08,24,03,48,10.10
2015,08,24,03,49,10.10
2015,08,24,03,50,10.10
2015,08,24,03,51,10.10
2015,08,24,03,52,10.10
2015,08,24,03,53,10.10
2015,08,24,03,54,10.10
2015,08,24,03,55,10.10
2015,08,24,03,56,10.10
2015,08,24,03,57,10.00
2015,08,24,03,58,10.00
2015,08,24,03,59,10.00
2015,08,24,04,00,10.00
2015,08,24,04,01,10.00
2015,08,24,04,02,10.00
2015,08,24,04,03,10.00
2015,08,24,04,04,10.00
2015,08,24,04,05,10.00
2015,08,24,04,06,9.90
2015,08,24,04,07,9.90
2015,08,24,04,08,9.90
2015,08,24,04,09,9.90
2015,08,24,04,10,9.90
2015,08,24,04,11,9.90
2015,08,24,04,12,9.90
2015,08,24,04,13,9.90
2015,08,24,04,14,9.90
2015,08,24,04,15,9.90
2015,08,24,04,16,9.90
2015,08,24,04,17,9.90
2015,08,24,04,18,9.80
2015,08,24,04,19,9.80
2015,08,24,04,20,9.80
2015,08,24,04,21,9.80
2015,08,24,04,22,9.80
2015,08,24,04,23,9.80
2015,08,24,04,24,9.80
2015,08,24,04,25,9.80
2015,08,24,04,26,9.80
2015,08,24,04,27,9.80
2015,08,24,04,28,9.80
2015,08,24,04,29,9.80
2015,08,24,04,30,9.80
2015,08,24,04,31,9.80
2015,08,24,04,32,9.80
2015,08,24,04,33,9.80
2015,08,24,04,34,9.80
2015,08,24,04,35,9.80
2015,08,24,04,36,9.80
2015,08,24,04,37,9.80
2015,08,24,04,38,9.80
2015,08,24,04,39,9.80
2015,08,24,04,40,9.80
2015,08,24,04,41,9.80
2015,08,24,04,42,9.80
2015,08,24,04,43,9.80
2015,08,24,04,44,9.80
2015,08,24,04,45,9.80
2015,08,24,04,46,9.80
2015,08,24,04,47,9.80
2015,08,24,04,48,9.80
2015,08,24,04,49,9.80
2015,08,24,04,50,9.80
2015,08,24,04,51,9.80
2015,08,24,04,52,9.80
2015,08,24,04,53,9.80
2015,08,24,04,54,9.80
2015,08,24,04,55,9.70
2015,08,24,04,56,9.70
2015,08,24,04,57,9.70
2015,08,24,04,58,9.70
2015,08,24,04,59,9.70
2015,08,24,05,00,9.70
2015,08,24,05,01,9.70
2015,08,24,05,02,9.70
2015,08,24,05,03,9.70
2015,08,24,05,04,9.70
2015,08,24,05,05,9.70
2015,08,24,05,06,9.70
2015,08,24,05,07,9.70
2015,08,24,05,08,9.70
2015,08,24,05,09,9.70
2015,08,24,05,10,9.70
2015,08,24,05,11,9.70
2015,08,24,05,12,9.70
2015,08,24,05,13,9.70
2015,08,24,05,14,9.70
2015,08,24,05,15,9.70
2015,08,24,05,16,9.70
2015,08,24,05,17,9.70
2015,08,24,05,18,9.70
2015,08,24,05,19,9.70
2015,08,24,05,20,9.70
2015,08,24,05,21,9.70
2015,08,24,05,22,9.70
2015,08,24,05,23,9.70
2015,08,24,05,24,9.70
2015,08,24,05,25,9.70
2015,08,24,05,26,9.70
2015,08,24,05,27,9.70
2015,08,24,05,28,9.70
2015,08,24,05,29,9.70
2015,08,24,05,30,9.70
2015,08,24,05,31,9.70
2015,08,24,05,32,9.60
2015,08,24,05,33,9.60
2015,08,24,05,34,9.60
2015,08,24,05,35,9.60
2015,08,24,05,36,9.60
2015,08,24,05,37,9.60
2015,08,24,05,38,9.60
2015,08,24,05,39,9.60
2015,08,24,05,40,9.60
2015,08,24,05,41,9.60
2015,08,24,05,42,9.60
2015,08,24,05,43,9.60
2015,08,24,05,44,9.60
2015,08,24,05,45,9.60
2015,08,24,05,46,9.60
2015,08,24,05,47,9.60
2015,08,24,05,48,9.60
2015,08,24,05,49,9.50
2015,08,24,05,50,9.50
2015,08,24,05,51,9.50
2015,08,24,05,52,9.50
2015,08,24,05,53,9.50
2015,08,24,05,54,9.50
2015,08,24,05,55,9.50
2015,08,24,05,56,9.50
2015,08,24,05,57,9.50
2015,08,24,05,58,9.50
2015,08,24,05,59,9.50
2015,08,24,06,00,9.50
2015,08,24,06,01,9.50
2015,08,24,06,02,9.50
2015,08,24,06,03,9.50
2015,08,24,06,04,9.50
2015,08,24,06,05,9.50
2015,08,24,06,06,9.50
2015,08,24,06,07,9.50
2015,08,24,06,08,9.50
2015,08,24,06,09,9.50
2015,08,24,06,10,9.50
2015,08,24,06,11,9.50
2015,08,24,06,12,9.60
2015,08,24,06,13,9.60
2015,08,24,06,14,9.60
2015,08,24,06,15,9.60
2015,08,24,06,16,9.60
2015,08,24,06,17,9.60
2015,08,24,06,18,9.60
2015,08,24,06,19,9.50
2015,08,24,06,20,9.60
2015,08,24,06,21,9.60
2015,08,24,06,22,9.60
2015,08,24,06,23,9.60
2015,08,24,06,24,9.50
2015,08,24,06,25,9.50
2015,08,24,06,26,9.50
2015,08,24,06,27,9.50
2015,08,24,06,28,9.60
2015,08,24,06,29,9.60
2015,08,24,06,30,9.60
2015,08,24,06,31,9.50
2015,08,24,06,32,9.60
2015,08,24,06,33,9.60
2015,08,24,06,34,9.60
2015,08,24,06,35,9.60
2015,08,24,06,36,9.60
2015,08,24,06,37,9.60
2015,08,24,06,38,9.60
2015,08,24,06,39,9.60
2015,08,24,06,40,9.60
2015,08,24,06,41,9.60
2015,08,24,06,42,9.60
2015,08,24,06,43,9.60
2015,08,24,06,44,9.60
2015,08,24,06,45,9.60
2015,08,24,06,46,9.60
2015,08,24,06,47,9.60
2015,08,24,06,48,9.60
2015,08,24,06,49,9.60
2015,08,24,06,50,9.60
2015,08,24,06,51,9.70
2015,08,24,06,52,9.70
2015,08,24,06,53,9.70
2015,08,24,06,54,9.70
2015,08,24,06,55,9.70
2015,08,24,06,56,9.70
2015,08,24,06,57,9.70
2015,08,24,06,58,9.70
2015,08,24,06,59,9.70
2015,08,24,07,00,9.70
2015,08,24,07,01,9.80
2015,08,24,07,02,9.80
2015,08,24,07,03,9.80
2015,08,24,07,04,9.80
2015,08,24,07,05,9.80
2015,08,24,07,06,9.80
2015,08,24,07,07,9.80
2015,08,24,07,08,9.80
2015,08,24,07,09,9.90
2015,08,24,07,10,9.90
2015,08,24,07,11,9.90
2015,08,24,07,12,9.90
2015,08,24,07,13,9.90
2015,08,24,07,14,9.90
2015,08,24,07,15,10.00
2015,08,24,07,16,10.00
2015,08,24,07,17,10.00
2015,08,24,07,18,10.10
2015,08,24,07,19,10.10
2015,08,24,07,20,10.10
2015,08,24,07,21,10.20
2015,08,24,07,22,10.20
2015,08,24,07,23,10.20
2015,08,24,07,24,10.30
2015,08,24,07,25,10.30
2015,08,24,07,26,10.30
2015,08,24,07,27,10.40
2015,08,24,07,28,10.40
2015,08,24,07,29,10.50
2015,08,24,07,30,10.60
2015,08,24,07,31,10.60
2015,08,24,07,32,10.70
2015,08,24,07,33,10.80
2015,08,24,07,34,10.80
2015,08,24,07,35,10.90
2015,08,24,07,36,10.90
2015,08,24,07,37,11.00
2015,08,24,07,38,11.10
2015,08,24,07,39,11.10
2015,08,24,07,40,11.20
2015,08,24,07,41,11.20
2015,08,24,07,42,11.30
2015,08,24,07,43,11.30
2015,08,24,07,44,11.30
2015,08,24,07,45,11.40
2015,08,24,07,46,11.40
2015,08,24,07,47,11.50
2015,08,24,07,48,11.60
2015,08,24,07,49,11.70
2015,08,24,07,50,11.80
2015,08,24,07,51,11.90
2015,08,24,07,52,12.00
2015,08,24,07,53,12.10
2015,08,24,07,54,12.20
2015,08,24,07,55,12.30
2015,08,24,07,56,12.40
2015,08,24,07,57,12.40
2015,08,24,07,58,12.50
2015,08,24,07,59,12.60
2015,08,24,08,00,12.70
2015,08,24,08,01,12.80
2015,08,24,08,02,12.90
2015,08,24,08,03,13.00
2015,08,24,08,04,13.00
2015,08,24,08,05,13.10
2015,08,24,08,06,13.20
2015,08,24,08,07,13.30
2015,08,24,08,08,13.30
2015,08,24,08,09,13.30
2015,08,24,08,10,13.40
2015,08,24,08,11,13.40
2015,08,24,08,12,13.50
2015,08,24,08,13,13.50
2015,08,24,08,14,13.60
2015,08,24,08,15,13.60
2015,08,24,08,16,13.70
2015,08,24,08,17,13.70
2015,08,24,08,18,13.70
2015,08,24,08,19,13.80
2015,08,24,08,20,13.90
2015,08,24,08,21,13.90
2015,08,24,08,22,14.00
2015,08,24,08,23,14.00
2015,08,24,08,24,14.10
2015,08,24,08,25,14.20
2015,08,24,08,26,14.20
2015,08,24,08,27,14.30
2015,08,24,08,28,14.30
2015,08,24,08,29,14.40
2015,08,24,08,30,14.40
2015,08,24,08,31,14.40
2015,08,24,08,32,14.50
2015,08,24,08,33,14.60
2015,08,24,08,34,14.60
2015,08,24,08,35,14.60
2015,08,24,08,36,14.70
2015,08,24,08,37,14.70
2015,08,24,08,38,14.80
2015,08,24,08,39,14.80
2015,08,24,08,40,14.90
2015,08,24,08,41,14.90
2015,08,24,08,42,14.90
2015,08,24,08,43,15.00
2015,08,24,08,44,15.10
2015,08,24,08,45,15.10
2015,08,24,08,46,15.10
2015,08,24,08,47,15.20
2015,08,24,08,48,15.20
2015,08,24,08,49,15.20
2015,08,24,08,50,15.30
2015,08,24,08,51,15.30
2015,08,24,08,52,15.40
2015,08,24,08,53,15.40
2015,08,24,08,54,15.40
2015,08,24,08,55,15.50
2015,08,24,08,56,15.60
2015,08,24,08,57,15.60
2015,08,24,08,58,15.60
2015,08,24,08,59,15.70
2015,08,24,09,00,15.70
2015,08,24,09,01,15.70
2015,08,24,09,02,15.80
2015,08,24,09,03,15.80
2015,08,24,09,04,15.90
2015,08,24,09,05,15.90
2015,08,24,09,06,15.90
2015,08,24,09,07,16.00
2015,08,24,09,08,16.00
2015,08,24,09,09,16.10
2015,08,24,09,10,16.10
2015,08,24,09,11,16.20
2015,08,24,09,12,16.20
2015,08,24,09,13,16.20
2015,08,24,09,14,16.30
2015,08,24,09,15,16.30
2015,08,24,09,16,16.30
2015,08,24,09,17,16.40
2015,08,24,09,18,16.40
2015,08,24,09,19,16.40
2015,08,24,09,20,16.50
2015,08,24,09,21,16.60
2015,08,24,09,22,16.60
2015,08,24,09,23,16.60
2015,08,24,09,24,16.70
2015,08,24,09,25,16.70
2015,08,24,09,26,16.80
2015,08,24,09,27,16.80
2015,08,24,09,28,16.80
2015,08,24,09,29,16.80
2015,08,24,09,30,16.90
2015,08,24,09,31,16.90
2015,08,24,09,32,16.90
2015,08,24,09,33,17.00
2015,08,24,09,34,17.00
2015,08,24,09,35,17.10
2015,08,24,09,36,17.20
2015,08,24,09,37,17.20
2015,08,24,09,38,17.20
2015,08,24,09,39,17.30
2015,08,24,09,40,17.30
2015,08,24,09,41,17.40
2015,08,24,09,42,17.40
2015,08,24,09,43,17.50
2015,08,24,09,44,17.60
2015,08,24,09,45,17.60
2015,08,24,09,46,17.70
2015,08,24,09,47,17.70
2015,08,24,09,48,17.70
2015,08,24,09,49,17.80
2015,08,24,09,50,17.80
2015,08,24,09,51,17.80
2015,08,24,09,52,17.90
2015,08,24,09,53,17.90
2015,08,24,09,54,18.00
2015,08,24,09,55,18.00
2015,08,24,09,56,18.00
2015,08,24,09,57,18.10
2015,08,24,09,58,18.20
2015,08,24,09,59,18.20
2015,08,24,10,00,18.20
2015,08,24,10,01,18.30
2015,08,24,10,02,18.30
2015,08,24,10,03,18.30
2015,08,24,10,04,18.40
2015,08,24,10,05,18.40
2015,08,24,10,06,18.50
2015,08,24,10,07,18.50
2015,08,24,10,08,18.60
2015,08,24,10,09,18.60
2015,08,24,10,10,18.70
2015,08,24,10,11,18.70
2015,08,24,10,12,18.70
2015,08,24,10,13,18.80
2015,08,24,10,14,18.80
2015,08,24,10,15,18.90
2015,08,24,10,16,18.90
2015,08,24,10,17,19.00
2015,08,24,10,18,19.10
2015,08,24,10,19,19.10
2015,08,24,10,20,19.20
2015,08,24,10,21,19.30
2015,08,24,10,22,19.30
2015,08,24,10,23,19.40
2015,08,24,10,24,19.40
2015,08,24,10,25,19.50
2015,08,24,10,26,19.50
2015,08,24,10,27,19.60
2015,08,24,10,28,19.70
2015,08,24,10,29,19.80
2015,08,24,10,30,19.90
2015,08,24,10,31,20.00
2015,08,24,10,32,20.00
2015,08,24,10,33,20.10
2015,08,24,10,34,20.10
2015,08,24,10,35,20.20
2015,08,24,10,36,20.20
2015,08,24,10,37,20.20
2015,08,24,10,38,20.30
2015,08,24,10,39,20.30
2015,08,24,10,40,20.40
2015,08,24,10,41,20.50
2015,08,24,10,42,20.60
2015,08,24,10,43,20.70
2015,08,24,10,44,20.70
2015,08,24,10,45,20.80
2015,08,24,10,46,20.90
2015,08,24,10,47,21.00
2015,08,24,10,48,21.10
2015,08,24,10,49,21.20
2015,08,24,10,50,21.30
2015,08,24,10,51,21.40
2015,08,24,10,52,21.50
2015,08,24,10,53,21.50
2015,08,24,10,54,21.60
2015,08,24,10,55,21.60
2015,08,24,10,56,21.70
2015,08,24,10,57,21.80
2015,08,24,10,58,21.80
2015,08,24,10,59,21.90
2015,08,24,11,00,22.00
2015,08,24,11,01,22.00
2015,08,24,11,02,22.00
2015,08,24,11,03,22.10
2015,08,24,11,04,22.20
2015,08,24,11,05,22.20
2015,08,24,11,06,22.30
2015,08,24,11,07,22.30
2015,08,24,11,08,22.40
2015,08,24,11,09,22.40
2015,08,24,11,10,22.30
2015,08,24,11,11,22.30
2015,08,24,11,12,22.30
2015,08,24,11,13,22.30
2015,08,24,11,14,22.30
2015,08,24,11,15,22.30
2015,08,24,11,16,22.30
2015,08,24,11,17,22.30
2015,08,24,11,18,22.40
2015,08,24,11,19,22.40
2015,08,24,11,20,22.40
2015,08,24,11,21,22.30
2015,08,24,11,22,22.30
2015,08,24,11,23,22.30
2015,08,24,11,24,22.30
2015,08,24,11,25,22.20
2015,08,24,11,26,22.20
2015,08,24,11,27,22.20
2015,08,24,11,28,22.20
2015,08,24,11,29,22.20
2015,08,24,11,30,22.20
2015,08,24,11,31,22.30
2015,08,24,11,32,22.30
2015,08,24,11,33,22.30
2015,08,24,11,34,22.40
2015,08,24,11,35,22.50
2015,08,24,11,36,22.50
2015,08,24,11,37,22.60
2015,08,24,11,38,22.60
2015,08,24,11,39,22.70
2015,08,24,11,40,22.70
2015,08,24,11,41,22.70
2015,08,24,11,42,22.70
2015,08,24,11,43,22.70
2015,08,24,11,44,22.80
2015,08,24,11,45,22.80
2015,08,24,11,46,22.80
2015,08,24,11,47,22.90
2015,08,24,11,48,23.00
2015,08,24,11,49,23.00
2015,08,24,11,50,23.10
2015,08,24,11,51,23.20
2015,08,24,11,52,23.20
2015,08,24,11,53,23.30
2015,08,24,11,54,23.40
2015,08,24,11,55,23.40
2015,08,24,11,56,23.50
2015,08,24,11,57,23.50
2015,08,24,11,58,23.50
2015,08,24,11,59,23.60
2015,08,24,12,00,23.60
2015,08,24,12,01,23.70
2015,08,24,12,02,23.80
2015,08,24,12,03,23.80
2015,08,24,12,04,23.80
2015,08,24,12,05,23.80
2015,08,24,12,06,23.80
2015,08,24,12,07,23.70
2015,08,24,12,08,23.60
2015,08,24,12,09,23.50
2015,08,24,12,10,23.50
2015,08,24,12,11,23.50
2015,08,24,12,12,23.50
2015,08,24,12,13,23.50
2015,08,24,12,14,23.60
2015,08,24,12,15,23.60
2015,08,24,12,16,23.70
2015,08,24,12,17,23.70
2015,08,24,12,18,23.70
2015,08,24,12,19,23.80
2015,08,24,12,20,23.70
2015,08,24,12,21,23.70
2015,08,24,12,22,23.70
2015,08,24,12,23,23.70
2015,08,24,12,24,23.70
2015,08,24,12,25,23.80
2015,08,24,12,26,23.80
2015,08,24,12,27,23.80
2015,08,24,12,28,23.90
2015,08,24,12,29,23.90
2015,08,24,12,30,23.90
2015,08,24,12,31,23.90
2015,08,24,12,32,24.00
2015,08,24,12,33,24.00
2015,08,24,12,34,24.10
2015,08,24,12,35,24.10
2015,08,24,12,36,24.10
2015,08,24,12,37,24.20
2015,08,24,12,38,24.30
2015,08,24,12,39,24.30
2015,08,24,12,40,24.30
2015,08,24,12,41,24.30
2015,08,24,12,42,24.40
2015,08,24,12,43,24.40
2015,08,24,12,44,24.50
2015,08,24,12,45,24.50
2015,08,24,12,46,24.60
2015,08,24,12,47,24.60
2015,08,24,12,48,24.60
2015,08,24,12,49,24.60
2015,08,24,12,50,24.50
2015,08,24,12,51,24.50
2015,08,24,12,52,24.40
2015,08,24,12,53,24.30
2015,08,24,12,54,24.30
2015,08,24,12,55,24.20
2015,08,24,12,56,24.20
2015,08,24,12,57,24.10
2015,08,24,12,58,24.10
2015,08,24,12,59,24.10
2015,08,24,13,00,24.10
2015,08,24,13,01,24.10
2015,08,24,13,02,24.00
2015,08,24,13,03,24.00
2015,08,24,13,04,23.90
2015,08,24,13,05,23.90
2015,08,24,13,06,23.90
2015,08,24,13,07,23.90
2015,08,24,13,08,23.90
2015,08,24,13,09,23.80
2015,08,24,13,10,23.80
2015,08,24,13,11,23.80
2015,08,24,13,12,23.70
2015,08,24,13,13,23.70
2015,08,24,13,14,23.80
2015,08,24,13,15,23.80
2015,08,24,13,16,23.80
2015,08,24,13,17,23.90
2015,08,24,13,18,23.90
2015,08,24,13,19,24.00
2015,08,24,13,20,24.10
2015,08,24,13,21,24.10
2015,08,24,13,22,24.10
2015,08,24,13,23,24.20
2015,08,24,13,24,24.10
2015,08,24,13,25,24.10
2015,08,24,13,26,24.10
2015,08,24,13,27,24.10
2015,08,24,13,28,24.00
2015,08,24,13,29,24.00
2015,08,24,13,30,24.00
2015,08,24,13,31,24.10
2015,08,24,13,32,24.10
2015,08,24,13,33,24.10
2015,08,24,13,34,24.20
2015,08,24,13,35,24.20
2015,08,24,13,36,24.30
2015,08,24,13,37,24.40
2015,08,24,13,38,24.40
2015,08,24,13,39,24.50
2015,08,24,13,40,24.60
2015,08,24,13,41,24.60
2015,08,24,13,42,24.70
2015,08,24,13,43,24.80
2015,08,24,13,44,24.80
2015,08,24,13,45,24.80
2015,08,24,13,46,24.90
2015,08,24,13,47,24.90
2015,08,24,13,48,24.90
2015,08,24,13,49,24.90
2015,08,24,13,50,24.90
2015,08,24,13,51,24.80
2015,08,24,13,52,24.80
2015,08,24,13,53,24.80
2015,08,24,13,54,24.80
2015,08,24,13,55,24.90
2015,08,24,13,56,24.90
2015,08,24,13,57,24.90
2015,08,24,13,58,24.90
2015,08,24,13,59,24.90
2015,08,24,14,00,24.80
2015,08,24,14,01,24.80
2015,08,24,14,02,24.80
2015,08,24,14,03,24.70
2015,08,24,14,04,24.70
2015,08,24,14,05,24.70
2015,08,24,14,06,24.70
2015,08,24,14,07,24.70
2015,08,24,14,08,24.60
2015,08,24,14,09,24.60
2015,08,24,14,10,24.50
2015,08,24,14,11,24.40
2015,08,24,14,12,24.40
2015,08,24,14,13,24.30
2015,08,24,14,14,24.20
2015,08,24,14,15,24.20
2015,08,24,14,16,24.10
2015,08,24,14,17,24.10
2015,08,24,14,18,24.00
2015,08,24,14,19,24.00
2015,08,24,14,20,23.90
2015,08,24,14,21,23.80
2015,08,24,14,22,23.70
2015,08,24,14,23,23.60
2015,08,24,14,24,23.60
2015,08,24,14,25,23.50
2015,08,24,14,26,23.50
2015,08,24,14,27,23.40
2015,08,24,14,28,23.40
2015,08,24,14,29,23.40
2015,08,24,14,30,23.30
2015,08,24,14,31,23.30
2015,08,24,14,32,23.20
2015,08,24,14,33,23.20
2015,08,24,14,34,23.20
2015,08,24,14,35,23.20
2015,08,24,14,36,23.20
2015,08,24,14,37,23.30
2015,08,24,14,38,23.30
2015,08,24,14,39,23.30
2015,08,24,14,40,23.40
2015,08,24,14,41,23.50
2015,08,24,14,42,23.60
2015,08,24,14,43,23.70
2015,08,24,14,44,23.70
2015,08,24,14,45,23.70
2015,08,24,14,46,23.70
2015,08,24,14,47,23.60
2015,08,24,14,48,23.60
2015,08,24,14,49,23.60
2015,08,24,14,50,23.50
2015,08,24,14,51,23.50
2015,08,24,14,52,23.50
2015,08,24,14,53,23.50
2015,08,24,14,54,23.50
2015,08,24,14,55,23.50
2015,08,24,14,56,23.60
2015,08,24,14,57,23.60
2015,08,24,14,58,23.60
2015,08,24,14,59,23.60
2015,08,24,15,00,23.70
2015,08,24,15,01,23.70
2015,08,24,15,02,23.70
2015,08,24,15,03,23.70
2015,08,24,15,04,23.80
2015,08,24,15,05,23.80
2015,08,24,15,06,23.80
2015,08,24,15,07,23.90
2015,08,24,15,08,23.90
2015,08,24,15,09,23.90
2015,08,24,15,10,24.00
2015,08,24,15,11,24.10
2015,08,24,15,12,24.10
2015,08,24,15,13,24.20
2015,08,24,15,14,24.30
2015,08,24,15,15,24.30
2015,08,24,15,16,24.40
2015,08,24,15,17,24.40
2015,08,24,15,18,24.50
2015,08,24,15,19,24.50
2015,08,24,15,20,24.50
2015,08,24,15,21,24.50
2015,08,24,15,22,24.50
2015,08,24,15,23,24.40
2015,08,24,15,24,24.40
2015,08,24,15,25,24.50
2015,08,24,15,26,24.50
2015,08,24,15,27,24.50
2015,08,24,15,28,24.50
2015,08,24,15,29,24.50
2015,08,24,15,30,24.50
2015,08,24,15,31,24.50
2015,08,24,15,32,24.50
2015,08,24,15,33,24.60
2015,08,24,15,34,24.60
2015,08,24,15,35,24.70
2015,08,24,15,36,24.70
2015,08,24,15,37,24.80
2015,08,24,15,38,24.90
2015,08,24,15,39,24.90
2015,08,24,15,40,25.00
2015,08,24,15,41,25.10
2015,08,24,15,42,25.20
2015,08,24,15,43,25.30
2015,08,24,15,44,25.30
2015,08,24,15,45,25.40
2015,08,24,15,46,25.40
2015,08,24,15,47,25.40
2015,08,24,15,48,25.30
2015,08,24,15,49,25.30
2015,08,24,15,50,25.30
2015,08,24,15,51,25.20
2015,08,24,15,52,25.10
2015,08,24,15,53,25.00
2015,08,24,15,54,24.90
2015,08,24,15,55,24.80
2015,08,24,15,56,24.70
2015,08,24,15,57,24.60
2015,08,24,15,58,24.60
2015,08,24,15,59,24.50
2015,08,24,16,00,24.50
2015,08,24,16,01,24.40
2015,08,24,16,02,24.40
2015,08,24,16,03,24.40
2015,08,24,16,04,24.40
2015,08,24,16,05,24.40
2015,08,24,16,06,24.40
2015,08,24,16,07,24.50
2015,08,24,16,08,24.50
2015,08,24,16,09,24.50
2015,08,24,16,10,24.50
2015,08,24,16,11,24.40
2015,08,24,16,12,24.40
2015,08,24,16,13,24.40
2015,08,24,16,14,24.30
2015,08,24,16,15,24.20
2015,08,24,16,16,24.10
2015,08,24,16,17,24.00
2015,08,24,16,18,24.00
2015,08,24,16,19,23.90
2015,08,24,16,20,23.80
2015,08,24,16,21,23.80
2015,08,24,16,22,23.70
2015,08,24,16,23,23.70
2015,08,24,16,24,23.60
2015,08,24,16,25,23.60
2015,08,24,16,26,23.60
2015,08,24,16,27,23.60
2015,08,24,16,28,23.60
2015,08,24,16,29,23.60
2015,08,24,16,30,23.60
2015,08,24,16,31,23.70
2015,08,24,16,32,23.70
2015,08,24,16,33,23.80
2015,08,24,16,34,23.80
2015,08,24,16,35,24.00
2015,08,24,16,36,24.00
2015,08,24,16,37,24.10
2015,08,24,16,38,24.20
2015,08,24,16,39,24.30
2015,08,24,16,40,24.40
2015,08,24,16,41,24.40
2015,08,24,16,42,24.50
2015,08,24,16,43,24.40
2015,08,24,16,44,24.40
2015,08,24,16,45,24.40
2015,08,24,16,46,24.40
2015,08,24,16,47,24.50
2015,08,24,16,48,24.50
2015,08,24,16,49,24.60
2015,08,24,16,50,24.60
2015,08,24,16,51,24.60
2015,08,24,16,52,24.60
2015,08,24,16,53,24.60
2015,08,24,16,54,24.50
2015,08,24,16,55,24.40
2015,08,24,16,56,24.40
2015,08,24,16,57,24.30
2015,08,24,16,58,24.30
2015,08,24,16,59,24.20
2015,08,24,17,00,24.20
2015,08,24,17,01,24.20
2015,08,24,17,02,24.20
2015,08,24,17,03,24.10
2015,08,24,17,04,24.20
2015,08,24,17,05,24.20
2015,08,24,17,06,24.20
2015,08,24,17,07,24.20
2015,08,24,17,08,24.20
2015,08,24,17,09,24.20
2015,08,24,17,10,24.30
2015,08,24,17,11,24.30
2015,08,24,17,12,24.30
2015,08,24,17,13,24.30
2015,08,24,17,14,24.30
2015,08,24,17,15,24.30
2015,08,24,17,16,24.30
2015,08,24,17,17,24.30
2015,08,24,17,18,24.30
2015,08,24,17,19,24.30
2015,08,24,17,20,24.30
2015,08,24,17,21,24.30
2015,08,24,17,22,24.30
2015,08,24,17,23,24.40
2015,08,24,17,24,24.40
2015,08,24,17,25,24.40
2015,08,24,17,26,24.50
2015,08,24,17,27,24.50